This is the latest recevied weather packets stored in our database for station/object WD9EKA. If no packets are shown the sender has not sent any weather packets the latest 10 day(s).
| Time | Temp. | Humidity | Pressure | Rain* | Wind** | Luminosity | Snow |
|---|---|---|---|---|---|---|---|
| 1787528597 | 24.44° C | 72% | 1010.9 hPa | 0 mm | - | - | - |
| 1787528277 | 24.44° C | 73% | 1010.8 hPa | 0 mm | - | - | - |
| 1787527957 | 24.44° C | 68% | 1010.6 hPa | 0 mm | - | - | - |
| 1787527654 | 25° C | 69% | 1010.7 hPa | 0 mm | - | - | - |
| 1787527349 | 25.56° C | 67% | 1010.9 hPa | 0 mm | - | - | - |
| 1787527029 | 25° C | 66% | 1010.7 hPa | 0 mm | - | - | - |
| 1787526389 | 25° C | 61% | 1010.8 hPa | 0 mm | - | - | - |
| 1787526069 | 25° C | 61% | 1011 hPa | 0 mm | - | - | - |
| 1787525749 | 25° C | 65% | 1010.8 hPa | 0 mm | - | - | - |
| 1787525429 | 25° C | 64% | 1010.8 hPa | 0 mm | - | - | - |
| 1787525109 | 24.44° C | 68% | 1010.7 hPa | 0 mm | - | - | - |
| 1787524414 | 25.56° C | 62% | 1010.7 hPa | 0 mm | - | - | - |
| 1787524054 | 25.56° C | 58% | 1010.8 hPa | 0 mm | - | - | - |
| 1787523694 | 26.11° C | 56% | 1010.9 hPa | 0 mm | - | - | - |
| 1787523334 | 26.11° C | 55% | 1010.9 hPa | 0 mm | - | - | - |
| 1787522974 | 26.67° C | 56% | 1010.8 hPa | 0 mm | - | - | - |
| 1787522614 | 26.67° C | 56% | 1011 hPa | 0 mm | - | - | - |
| 1787522309 | 26.67° C | 52% | 1010.9 hPa | 0 mm | - | - | - |
| 1787521989 | 26.11° C | 59% | 1010.9 hPa | 0 mm | - | - | - |
| 1787521669 | 26.11° C | 58% | 1010.7 hPa | 0 mm | - | - | - |
| 1787521349 | 26.11° C | 58% | 1010.9 hPa | 0 mm | - | - | - |
| 1787521029 | 25° C | 59% | 1010.6 hPa | 0 mm | - | - | - |
| 1787520709 | 25° C | 58% | 1010.9 hPa | 0 mm | - | - | - |
| 1787520069 | 26.11° C | 57% | 1010.9 hPa | 0 mm | - | - | - |
| 1787519749 | 27.22° C | 55% | 1010.9 hPa | 0 mm | - | - | - |
* Rain latest hour (hover to see other rain measurements)
** Current wind speed in m/s (hover to see current wind gust speed)